GW6947 Weather Reports


time (UTC)temp
C
wind
direction
speed
KPH
gust
KPH
rain 1hr
cm
rain 24hr
cm
rain mn
cm
humidity
%
barometer
mb
20260906035922 23 32 1.6 3.2 0.00 0.05 0.05 81 1047.3
20260906035418 23 305 0.0 0.0 0.00 0.05 0.05 81 1047.2
20260906034913 23 98 0.0 1.6 0.00 0.05 0.05 81 1047.2
20260906034413 23 84 1.6 1.6 0.00 0.05 0.05 81 1047.2
20260906033909 23 289 0.0 0.0 0.00 0.05 0.05 81 1046.7
20260906033408 23 120 0.0 0.0 0.00 0.05 0.05 81 1046.9
20260906032905 23 357 1.6 4.8 0.00 0.05 0.05 81 1047.1
20260906032401 23 129 0.0 1.6 0.00 0.05 0.05 81 1047.1
20260906031901 23 330 0.0 0.0 0.00 0.05 0.05 82 1047.2
20260906031356 23 83 1.6 3.2 0.00 0.05 0.05 82 1047.1
20260906030851 24 128 3.2 4.8 0.00 0.05 0.05 82 1047.0
20260906030347 23 183 1.6 12.9 0.00 0.05 0.05 82 1047.1
20260906025847 23 25 3.2 3.2 0.00 0.05 0.05 84 1047.2
20260906025340 23 289 0.0 0.0 0.00 0.05 0.05 84 1047.0
20260906024840 23 283 0.0 0.0 0.00 0.05 0.05 83 1046.7
20260906024339 24 284 0.0 0.0 0.00 0.05 0.05 82 1046.9
20260906023834 23 263 0.0 0.0 0.00 0.05 0.05 82 1046.9
20260906023330 23 273 0.0 0.0 0.00 0.05 0.05 83 1046.8
20260906022825 24 294 0.0 1.6 0.00 0.05 0.05 83 1046.7
20260906022320 24 266 0.0 0.0 0.00 0.05 0.05 82 1046.9
20260906021816 25 277 0.0 0.0 0.00 0.05 0.05 80 1047.0
20260906021315 25 62 0.0 0.0 0.00 0.05 0.05 76 1046.6
20260906020810 25 62 0.0 0.0 0.00 0.05 0.05 76 1046.9
20260906020310 26 62 0.0 0.0 0.00 0.05 0.05 74 1046.7
20260906015810 26 62 1.6 3.2 0.00 0.05 0.05 74 1046.6
20260906015309 26 55 1.6 1.6 0.00 0.05 0.05 75 1046.6
20260906014809 26 55 0.0 0.0 0.00 0.05 0.05 76 1046.6
20260906014304 26 55 0.0 0.0 0.00 0.05 0.05 76 1046.7
20260906013801 26 10 1.6 1.6 0.00 0.05 0.05 77 1046.6
20260906013301 26 42 0.0 3.2 0.00 0.05 0.05 78 1046.7
20260906012756 26 43 0.0 0.0 0.00 0.05 0.05 77 1046.6
20260906012251 26 56 1.6 3.2 0.00 0.05 0.05 77 1046.4
20260906011746 26 17 0.0 0.0 0.00 0.05 0.05 81 1046.5
20260906011246 26 348 1.6 1.6 0.00 0.05 0.05 81 1046.5
20260906010742 26 106 1.6 1.6 0.00 0.05 0.05 79 1046.3
20260906010238 27 98 0.0 1.6 0.00 0.05 0.05 76 1046.3
20260906005733 27 48 0.0 0.0 0.00 0.05 0.05 75 1046.2
20260906005232 27 56 0.0 3.2 0.00 0.05 0.05 76 1046.3
20260906004731 27 104 0.0 1.6 0.00 0.05 0.05 77 1046.1
20260906004226 27 146 0.0 0.0 0.00 0.05 0.05 76 1046.1
20260906003721 27 82 0.0 1.6 0.00 0.05 0.05 76 1046.1
20260906003217 27 118 3.2 3.2 0.00 0.05 0.05 73 1045.8
20260906002717 27 321 1.6 1.6 0.00 0.05 0.05 74 1046.1
20260906002212 27 144 0.0 0.0 0.00 0.05 0.05 74 1046.1
20260906001707 28 82 0.0 1.6 0.00 0.05 0.05 76 1046.2
20260906001207 28 110 0.0 0.0 0.00 0.05 0.05 75 1046.4
20260906000703 28 121 0.0 0.0 0.00 0.05 0.05 72 1046.4
20260906000158 29 67 0.0 1.6 0.00 0.05 0.05 67 1046.3
20260905235657 29 285 0.0 0.0 0.00 0.05 0.05 65 1046.1
20260905235152 29 293 0.0 0.0 0.00 0.05 0.05 66 1046.3
20260905234647 29 280 0.0 0.0 0.00 0.05 0.05 66 1046.6
20260905234143 30 285 0.0 0.0 0.00 0.05 0.05 64 1046.6
20260905233638 30 332 0.0 0.0 0.00 0.05 0.05 63 1046.5
20260905233137 30 345 0.0 1.6 0.00 0.05 0.05 62 1046.6
20260905232632 30 319 0.0 3.2 0.00 0.05 0.05 62 1046.6
20260905232128 30 299 1.6 1.6 0.00 0.05 0.05 63 1046.5
20260905231623 31 310 1.6 1.6 0.00 0.05 0.05 60 1046.6
20260905231119 31 357 0.0 0.0 0.00 0.05 0.05 61 1046.7
20260905230615 31 16 0.0 1.6 0.00 0.05 0.05 61 1046.7
20260905230113 31 301 0.0 1.6 0.00 0.05 0.05 58 1046.6
20260905225612 31 306 1.6 3.2 0.00 0.05 0.05 57 1046.6
20260905225108 31 297 1.6 1.6 0.00 0.05 0.05 57 1046.5
20260905224607 32 326 1.6 3.2 0.00 0.05 0.05 56 1046.5
20260905224107 32 309 1.6 1.6 0.00 0.05 0.05 55 1046.5
20260905223604 32 1 3.2 3.2 0.00 0.05 0.05 53 1046.6
20260905223100 32 317 0.0 1.6 0.00 0.05 0.05 51 1046.7
20260905222600 32 5 4.8 4.8 0.00 0.05 0.05 51 1046.7
20260905222055 33 2 3.2 4.8 0.00 0.05 0.05 51 1046.7
20260905221552 33 339 3.2 6.4 0.00 0.05 0.05 51 1046.6
20260905221047 32 326 1.6 3.2 0.00 0.05 0.05 51 1046.7
20260905220543 33 14 3.2 3.2 0.00 0.05 0.05 51 1046.7
20260905220039 33 14 3.2 4.8 0.00 0.05 0.05 51 1046.6
20260905215538 33 20 1.6 4.8 0.00 0.05 0.05 49 1046.6
20260905215034 33 304 4.8 4.8 0.00 0.05 0.05 50 1046.6
20260905214530 33 23 1.6 4.8 0.00 0.05 0.05 52 1046.7
20260905214025 33 328 6.4 14.5 0.00 0.05 0.05 50 1046.3
20260905213520 33 333 9.7 11.3 0.00 0.05 0.05 48 1046.3
20260905213016 33 23 1.6 4.8 0.00 0.05 0.05 51 1046.3
20260905212511 33 301 3.2 6.4 0.00 0.05 0.05 48 1046.3
20260905212010 33 230 6.4 6.4 0.00 0.05 0.05 47 1046.2
20260905211505 33 325 4.8 9.7 0.00 0.05 0.05 48 1046.4
20260905211001 33 302 6.4 9.7 0.00 0.05 0.05 48 1046.6
20260905210456 33 323 6.4 11.3 0.00 0.05 0.05 48 1046.4
20260905205955 33 339 6.4 9.7 0.00 0.05 0.05 48 1046.6
20260905205451 33 293 3.2 6.4 0.00 0.05 0.05 49 1046.3
20260905204949 34 323 3.2 11.3 0.00 0.05 0.05 47 1046.1
20260905204445 33 297 1.6 3.2 0.00 0.05 0.05 52 1046.4
20260905203944 33 299 6.4 9.7 0.00 0.05 0.05 49 1046.4
20260905203440 33 313 3.2 4.8 0.00 0.05 0.05 49 1046.5
20260905202936 33 256 1.6 3.2 0.00 0.05 0.05 48 1046.6
20260905202431 33 43 4.8 6.4 0.00 0.05 0.05 47 1046.8
20260905201926 33 323 6.4 11.3 0.00 0.05 0.05 47 1046.8
20260905201421 34 297 8.0 9.7 0.00 0.05 0.05 48 1047.0
20260905200921 33 307 4.8 6.4 0.00 0.05 0.05 47 1047.0
20260905200417 33 243 1.6 4.8 0.00 0.05 0.05 52 1047.1
20260905195915 33 295 6.4 9.7 0.00 0.05 0.05 48 1047.0
20260905195410 33 291 8.0 9.7 0.00 0.05 0.05 48 1046.8
20260905194906 34 250 3.2 9.7 0.00 0.05 0.05 47 1047.0
20260905194405 34 236 0.0 3.2 0.00 0.05 0.05 48 1047.2
20260905193905 33 57 1.6 3.2 0.00 0.05 0.05 47 1047.5
20260905193400 34 291 6.4 6.4 0.00 0.05 0.05 44 1047.6
20260905192856 33 239 1.6 4.8 0.00 0.05 0.05 47 1047.5
20260905192351 33 265 8.0 9.7 0.00 0.05 0.05 45 1047.6
20260905191851 33 317 4.8 6.4 0.00 0.05 0.05 47 1047.5
20260905191350 33 216 4.8 6.4 0.00 0.05 0.05 46 1047.4
20260905190850 33 220 3.2 6.4 0.00 0.05 0.05 46 1047.7
20260905190348 33 213 3.2 6.4 0.00 0.05 0.05 46 1047.8
20260905185847 33 226 4.8 6.4 0.00 0.05 0.05 47 1047.9
20260905185343 33 178 3.2 4.8 0.00 0.05 0.05 47 1047.9
20260905184841 33 296 4.8 6.4 0.00 0.05 0.05 52 1048.0
20260905184341 33 262 3.2 11.3 0.00 0.05 0.05 50 1047.8
20260905183839 32 272 8.0 11.3 0.00 0.05 0.05 51 1048.0
20260905183335 32 221 8.0 9.7 0.00 0.05 0.05 51 1048.2
20260905182836 32 238 3.2 6.4 0.00 0.05 0.05 52 1048.3
20260905182335 32 228 3.2 4.8 0.00 0.05 0.05 55 1048.2
20260905181831 32 175 3.2 9.7 0.00 0.05 0.05 50 1048.4
20260905181330 32 130 6.4 6.4 0.00 0.05 0.05 49 1048.3
20260905180829 32 153 11.3 11.3 0.00 0.05 0.05 50 1048.3
20260905180325 32 205 6.4 11.3 0.00 0.05 0.05 52 1048.4
20260905175819 32 100 1.6 4.8 0.00 0.05 0.05 56 1048.5
20260905175314 32 224 6.4 6.4 0.00 0.05 0.05 58 1048.6
20260905174809 31 220 3.2 4.8 0.00 0.05 0.05 54 1048.3
20260905174305 31 142 3.2 4.8 0.00 0.05 0.05 52 1048.6
20260905173801 31 222 6.4 9.7 0.00 0.05 0.05 52 1048.6
20260905173256 32 158 4.8 11.3 0.00 0.05 0.05 51 1048.6
20260905172756 31 219 3.2 4.8 0.00 0.05 0.05 51 1048.8
20260905172254 31 120 4.8 9.7 0.00 0.05 0.05 54 1048.9
20260905171751 31 194 8.0 9.7 0.00 0.05 0.05 50 1048.8
20260905171247 31 229 1.6 9.7 0.00 0.05 0.05 54 1049.1
20260905170743 31 117 6.4 12.9 0.00 0.05 0.05 53 1049.1
20260905170239 30 132 6.4 6.4 0.00 0.05 0.05 51 1049.1
20260905165738 30 137 6.4 9.7 0.00 0.05 0.05 54 1049.1
20260905165234 30 158 3.2 12.9 0.00 0.05 0.05 52 1049.3
20260905164733 30 154 1.6 9.7 0.00 0.05 0.05 54 1049.0
20260905164228 30 149 6.4 9.7 0.00 0.05 0.05 55 1049.0
20260905163724 30 160 4.8 9.7 0.00 0.05 0.05 54 1049.1
20260905163220 30 142 3.2 4.8 0.00 0.05 0.05 56 1049.1
20260905162716 30 129 3.2 9.7 0.00 0.05 0.05 60 1049.1
20260905162216 30 146 6.4 9.7 0.00 0.05 0.05 59 1049.3
20260905161711 29 174 8.0 11.3 0.00 0.05 0.05 63 1049.1
20260905161209 29 128 6.4 6.4 0.00 0.05 0.05 62 1049.3
20260905160708 29 145 9.7 12.9 0.00 0.05 0.05 58 1049.3
20260905160207 28 131 1.6 6.4 0.00 0.05 0.05 62 1049.3
20260905155702 28 199 8.0 11.3 0.00 0.05 0.05 63 1049.2
20260905155201 28 195 6.4 9.7 0.00 0.05 0.05 59 1049.5
20260905154655 28 151 8.0 11.3 0.00 0.05 0.05 65 1049.7
20260905154151 28 153 4.8 9.7 0.00 0.05 0.05 65 1049.8
20260905153647 28 151 3.2 9.7 0.00 0.05 0.05 67 1049.7
20260905153142 27 164 3.2 14.5 0.00 0.05 0.05 66 1049.9
20260905152637 27 115 9.7 11.3 0.00 0.05 0.05 66 1049.8
20260905152131 27 131 9.7 11.3 0.00 0.05 0.05 70 1049.9
20260905151627 27 170 8.0 12.9 0.00 0.05 0.05 69 1050.0
20260905151122 26 169 8.0 9.7 0.00 0.05 0.05 72 1050.0
20260905150617 26 177 9.7 11.3 0.00 0.05 0.05 71 1049.8
20260905150115 26 164 8.0 9.7 0.00 0.05 0.05 72 1049.9
20260905145614 26 131 6.4 12.9 0.00 0.05 0.05 72 1049.8
20260905145113 26 164 8.0 9.7 0.00 0.05 0.05 73 1049.9
20260905144608 26 112 11.3 16.1 0.00 0.05 0.05 73 1049.9
20260905144108 26 141 9.7 12.9 0.00 0.05 0.05 71 1050.0
20260905143607 26 115 8.0 11.3 0.00 0.05 0.05 73 1050.2
20260905143102 26 116 9.7 14.5 0.00 0.05 0.05 75 1050.1
20260905142602 26 106 11.3 12.9 0.00 0.05 0.05 74 1050.2
20260905142102 25 103 6.4 9.7 0.00 0.05 0.05 79 1050.1
20260905141601 25 109 8.0 9.7 0.00 0.05 0.05 79 1050.2
20260905141058 24 107 3.2 9.7 0.00 0.05 0.05 81 1050.1
20260905140553 23 106 6.4 9.7 0.00 0.05 0.05 80 1049.9
20260905140052 23 169 3.2 6.4 0.00 0.05 0.05 80 1049.9
20260905135547 23 263 3.2 11.3 0.00 0.05 0.05 81 1050.1
20260905135047 23 124 0.0 4.8 0.00 0.05 0.05 83 1050.2
20260905134542 22 170 3.2 4.8 0.00 0.05 0.05 84 1050.3
20260905134041 22 44 9.7 17.7 0.00 0.05 0.05 84 1050.2
20260905133537 22 84 8.0 16.1 0.00 0.05 0.05 84 1050.0
20260905133036 22 89 6.4 12.9 0.00 0.05 0.05 85 1050.4
20260905132536 22 70 8.0 20.9 0.00 0.05 0.05 85 1050.5
20260905132031 22 82 4.8 11.3 0.00 0.05 0.05 86 1050.5
20260905131527 22 75 8.0 16.1 0.00 0.05 0.05 86 1050.5
20260905131022 22 297 12.9 17.7 0.00 0.05 0.05 87 1050.6
20260905130521 22 106 4.8 22.5 0.00 0.05 0.05 87 1050.9
20260905130016 22 49 4.8 17.7 0.00 0.05 0.05 87 1050.8
20260905125515 22 64 9.7 12.9 0.00 0.05 0.05 86 1050.4
20260905125011 22 110 8.0 14.5 0.00 0.05 0.05 86 1050.5
20260905124508 22 176 3.2 22.5 0.18 0.05 0.05 86 1050.4
20260905124003 22 52 16.1 24.1 0.18 0.05 0.05 84 1050.3
20260905123459 22 177 3.2 4.8 0.00 0.03 0.03 85 1049.7
20260905122955 22 54 6.4 9.7 0.00 0.03 0.03 85 1050.1
20260905122455 22 349 6.4 12.9 0.00 0.03 0.03 84 1050.0
20260905121949 22 21 8.0 14.5 0.00 0.03 0.03 83 1049.8
20260905121445 22 346 8.0 11.3 0.00 0.03 0.03 84 1049.8
20260905120944 22 54 9.7 11.3 0.00 0.03 0.03 84 1049.9
20260905120439 22 6 6.4 9.7 0.00 0.03 0.03 85 1050.0
20260905115934 22 335 6.4 14.5 0.00 0.03 0.03 86 1050.1
20260905115433 22 321 8.0 16.1 0.00 0.03 0.03 85 1050.2
20260905114929 22 308 6.4 9.7 0.00 0.03 0.03 86 1049.4
20260905114428 22 309 6.4 12.9 0.00 0.03 0.03 86 1049.3
20260905113927 22 293 8.0 12.9 0.00 0.03 0.03 86 1049.4
20260905113422 22 236 1.6 6.4 0.00 0.03 0.03 86 1049.7
20260905112918 22 104 6.4 14.5 0.13 0.03 0.03 87 1049.6
20260905112413 22 298 8.0 11.3 0.13 0.03 0.03 86 1049.0
20260905111908 22 330 16.1 29.0 0.00 0.00 0.00 83 1049.3
20260905111408 23 347 17.7 27.4 0.00 0.00 0.00 82 1048.8
20260905110903 23 52 19.3 29.0 0.00 0.00 0.00 83 1049.2
20260905110402 24 322 24.1 33.8 0.00 0.00 0.00 83 1049.0
20260905105857 24 33 11.3 12.9 0.00 0.00 0.00 86 1049.0
20260905105356 23 23 6.4 11.3 0.00 0.00 0.00 91 1048.9
20260905104856 23 325 3.2 11.3 0.00 0.00 0.00 94 1048.8
20260905104353 22 312 4.8 11.3 0.00 0.00 0.00 96 1048.8
20260905103852 22 322 1.6 4.8 0.00 0.00 0.00 96 1048.4
20260905103348 22 272 1.6 1.6 0.00 0.00 0.00 96 1048.3
20260905102843 22 202 0.0 1.6 0.00 0.00 0.00 95 1048.0
20260905102340 22 287 1.6 1.6 0.00 0.00 0.00 95 1048.1
20260905101840 22 280 0.0 0.0 0.00 0.00 0.00 95 1048.2
20260905101338 22 109 0.0 1.6 0.00 0.00 0.00 96 1047.9
20260905100833 21 39 3.2 3.2 0.00 0.00 0.00 96 1048.2
20260905100330 21 35 1.6 1.6 0.00 0.00 0.00 95 1048.3
20260905095829 22 119 3.2 3.2 0.00 0.00 0.00 94 1048.0
20260905095328 22 123 0.0 0.0 0.00 0.00 0.00 95 1048.3
20260905094823 22 263 0.0 0.0 0.00 0.00 0.00 95 1048.3
20260905094319 22 250 0.0 0.0 0.00 0.00 0.00 94 1048.1
20260905093817 22 4 0.0 0.0 0.00 0.00 0.00 95 1048.0
20260905093314 22 32 3.2 3.2 0.00 0.00 0.00 94 1048.1
20260905092809 22 50 3.2 3.2 0.00 0.00 0.00 94 1048.2
20260905092309 22 18 1.6 1.6 0.00 0.00 0.00 94 1047.9
20260905091804 22 2 0.0 0.0 0.00 0.00 0.00 94 1047.9
20260905091304 22 2 0.0 0.0 0.00 0.00 0.00 94 1047.9
20260905090803 22 2 0.0 0.0 0.00 0.00 0.00 94 1048.2
20260905090259 22 37 0.0 1.6 0.00 0.00 0.00 95 1047.9
20260905085758 22 29 1.6 1.6 0.00 0.00 0.00 95 1048.3
20260905085258 22 29 3.2 3.2 0.00 0.00 0.00 95 1048.0
20260905084754 22 28 3.2 3.2 0.00 0.00 0.00 95 1048.0
20260905084253 22 45 3.2 3.2 0.00 0.00 0.00 95 1048.1
20260905083748 22 64 0.0 0.0 0.00 0.00 0.00 95 1048.0
20260905083244 22 67 0.0 0.0 0.00 0.00 0.00 95 1048.0
20260905082739 22 66 0.0 0.0 0.00 0.00 0.00 95 1047.9
20260905082236 22 66 0.0 0.0 0.00 0.00 0.00 95 1047.9
20260905081736 22 66 0.0 0.0 0.00 0.00 0.00 95 1047.8
20260905081231 22 66 0.0 0.0 0.00 0.00 0.00 95 1047.7
20260905080730 22 66 0.0 0.0 0.00 0.00 0.00 95 1047.8
20260905080230 22 66 0.0 0.0 0.00 0.00 0.00 95 1048.0
20260905075729 22 66 0.0 0.0 0.00 0.00 0.00 95 1048.0
20260905075229 22 66 0.0 0.0 0.00 0.00 0.00 95 1048.0
20260905074728 22 66 0.0 0.0 0.00 0.00 0.00 95 1047.8
20260905074224 22 66 0.0 0.0 0.00 0.00 0.00 94 1048.2
20260905073719 22 66 0.0 0.0 0.00 0.00 0.00 94 1048.0
20260905073214 22 66 0.0 0.0 0.00 0.00 0.00 94 1047.9
20260905072714 22 66 0.0 0.0 0.00 0.00 0.00 94 1048.1
20260905072209 22 66 0.0 0.0 0.00 0.00 0.00 93 1048.3
20260905071706 22 66 0.0 0.0 0.00 0.00 0.00 93 1048.3
20260905071201 22 67 0.0 0.0 0.00 0.00 0.00 92 1048.5
20260905070656 23 67 1.6 1.6 0.00 0.00 0.00 91 1048.4
20260905070152 23 52 0.0 1.6 0.00 0.00 0.00 92 1048.4
20260905065651 23 44 3.2 3.2 0.00 0.00 0.00 92 1048.3
20260905065145 23 44 3.2 3.2 0.00 0.00 0.00 91 1048.3
20260905064640 23 1 1.6 1.6 0.00 0.00 0.00 91 1048.5
20260905064136 23 345 0.0 0.0 0.00 0.00 0.00 91 1048.6
20260905063634 23 345 0.0 0.0 0.00 0.00 0.00 92 1048.5
20260905063131 23 345 0.0 0.0 0.00 0.00 0.00 92 1048.8
20260905062627 22 345 0.0 0.0 0.00 0.00 0.00 92 1048.9
20260905062125 22 344 0.0 0.0 0.00 0.00 0.00 92 1049.2
20260905061620 22 341 1.6 1.6 0.00 0.00 0.00 92 1049.1
20260905061120 22 273 0.0 0.0 0.00 0.00 0.00 92 1048.9
20260905060616 23 271 0.0 1.6 0.00 0.00 0.00 92 1049.1
20260905060112 23 288 3.2 3.2 0.00 0.00 0.00 92 1049.2
20260905055610 23 162 0.0 0.0 0.00 0.00 0.00 91 1049.2
20260905055106 23 162 0.0 0.0 0.00 0.00 0.00 90 1049.4
20260905054601 23 303 0.0 3.2 0.00 0.00 0.00 90 1049.2
20260905054056 23 31 3.2 3.2 0.00 0.00 0.00 89 1049.1
20260905053555 23 17 0.0 0.0 0.00 0.00 0.00 91 1049.2
20260905053052 23 299 0.0 1.6 0.00 0.00 0.00 90 1049.3
20260905052551 23 267 0.0 0.0 0.00 0.00 0.00 91 1049.5
20260905052045 23 268 0.0 0.0 0.00 0.00 0.00 90 1049.5
20260905051541 23 274 0.0 0.0 0.00 0.00 0.00 89 1049.6
20260905051038 23 269 0.0 0.0 0.00 0.00 0.00 89 1049.5
20260905050534 23 271 0.0 0.0 0.00 0.00 0.00 88 1049.3
20260905050031 23 52 0.0 0.0 0.00 0.00 0.00 88 1049.4
20260905045525 23 35 0.0 0.0 0.00 0.00 0.00 88 1049.6
20260905045020 24 30 1.6 3.2 0.00 0.00 0.00 86 1049.4
20260905044520 24 22 0.0 0.0 0.00 0.00 0.00 86 1049.6
20260905044015 24 352 0.0 0.0 0.00 0.00 0.00 87 1049.4
20260905043514 24 116 0.0 0.0 0.00 0.00 0.00 87 1049.4
20260905043010 24 116 0.0 0.0 0.00 0.00 0.00 87 1049.5
20260905042508 24 116 0.0 0.0 0.00 0.00 0.00 86 1049.4
20260905042003 24 112 0.0 0.0 0.00 0.00 0.00 87 1049.5
20260905041459 24 21 0.0 1.6 0.00 0.00 0.00 87 1049.5
20260905040954 24 343 1.6 3.2 0.00 0.00 0.00 87 1049.5
20260905040453 24 47 4.8 4.8 0.00 0.00 0.00 86 1049.5